Location: Althorst
(53.6379°N, 10.7715°E)
Time: 10:30:57
(UTC+00:00)

Cosmos 1441 Rocket - Pass Details

Date: 10 December 2019
Orbit: 496 x 541 km, 81.1° (Epoch: 26 January)

Event Time Altitude Azimuth Distance (km) Brightness Sun altitude
Rises 16:28:44 0° 351° (N) 2,664 6.7 -12.5°
Reaches altitude 10° 16:31:02 10° 1° (N) 1,763 5.7 -12.8°
Maximum altitude 16:34:38 36° 68° (ENE) 839 3.7 -13.3°
Drops below altitude 10° 16:38:08 10° 136° (SE) 1,725 5.6 -13.8°
Sets 16:40:22 0° 146° (SE) 2,598 6.6 -14.1°
